QPF
0.00 0.00 0.00 0.01 0.01 0.01 0.01 0.01 0.01 0.01 0.02 0.04 0.06 0.06 0.06 0.05 0.03 0.03 0.03 0.03 0.03 0.03 0.03 0.03 0.03 0.05 0.06 0.07 0.04 0.04 0.03 0.02 0.01 0.01 0.01 0.02 0.02 0.02 0.02 0.01 0.01 0.01 0.02
0.00 0.00 0.00 0.00 0.01 0.01 0.01 0.01 0.01 0.01 0.01 0.02 0.03 0.04 0.05 0.06 0.05 0.04 0.02 0.02 0.02 0.02 0.03 0.04 0.03 0.03 0.04 0.06 0.06 0.04 0.04 0.04 0.03 0.01 0.01 0.02 0.02 0.02 0.02 0.02 0.01 0.02 0.01
0.00 0.00 0.00 0.00 0.00 0.01 0.01 0.00 0.01 0.00 0.01 0.01 0.01 0.02 0.03 0.04 0.04 0.03 0.02 0.01 0.01 0.01 0.02 0.03 0.03 0.03 0.03 0.05 0.05 0.05 0.03 0.04 0.03 0.02 0.01 0.01 0.01 0.01 0.02 0.02 0.02 0.02 0.02
0.00 0.00 0.00 0.00 0.00 0.00 0.00 0.00 0.01 0.00 0.00 0.00 0.01 0.01 0.02 0.03 0.04 0.03 0.02 0.01 0.01 0.01 0.01 0.02 0.02 0.02 0.02 0.03 0.04 0.04 0.04 0.03 0.03 0.02 0.01 0.01 0.01 0.01 0.03 0.03 0.03 0.03 0.03
0.00 0.00 0.00 0.00 0.00 0.00 0.00 0.00 0.00 0.01 0.00 0.00 0.00 0.01 0.01 0.02 0.03 0.03 0.02 0.02 0.01 0.01 0.01 0.01 0.01 0.01 0.01 0.02 0.02 0.03 0.03 0.03 0.02 0.02 0.01 0.01 0.01 0.01 0.03 0.04 0.03 0.03 0.03
0.00 0.00 0.00 0.00 0.00 0.00 0.00 0.00 0.00 0.00 0.01 0.01 0.01 0.01 0.02 0.02 0.03 0.03 0.03 0.02 0.02 0.01 0.01 0.01 0.01 0.01 0.01 0.02 0.02 0.03 0.03 0.03 0.03 0.02 0.02 0.01 0.01 0.01 0.02 0.04 0.04 0.04 0.03
0.00 0.00 0.00 0.00 0.00 0.00 0.00 0.01 0.00 0.00 0.01 0.01 0.01 0.01 0.02 0.02 0.02 0.03 0.03 0.04 0.03 0.03 0.02 0.01 0.01 0.01 0.01 0.02 0.02 0.03 0.03 0.02 0.03 0.04 0.03 0.02 0.01 0.01 0.02 0.03 0.04 0.04 0.04
0.00 0.00 0.00 0.00 0.00 0.00 0.01 0.01 0.01 0.01 0.01 0.01 0.01 0.01 0.01 0.01 0.01 0.02 0.03 0.03 0.04 0.03 0.02 0.02 0.01 0.01 0.01 0.02 0.02 0.03 0.02 0.02 0.02 0.03 0.03 0.02 0.01 0.01 0.02 0.03 0.04 0.04 0.05
0.00 0.00 0.00 0.00 0.00 0.00 0.00 0.00 0.00 0.01 0.01 0.01 0.01 0.01 0.01 0.01 0.01 0.01 0.02 0.02 0.02 0.03 0.02 0.01 0.01 0.01 0.01 0.01 0.02 0.02 0.01 0.01 0.02 0.02 0.02 0.02 0.01 0.01 0.03 0.05 0.04 0.04 0.05
0.00 0.00 0.00 0.00 0.00 0.00 0.00 0.00 0.00 0.00 0.00 0.00 0.01 0.01 0.02 0.01 0.00 0.00 0.01 0.01 0.01 0.01 0.01 0.01 0.01 0.01 0.01 0.01 0.01 0.01 0.01 0.01 0.01 0.02 0.02 0.02 0.01 0.01 0.02 0.03 0.04 0.04 0.04
0.00 0.00 0.00 0.00 0.00 0.00 0.01 0.00 0.00 0.00 0.00 0.00 0.00 0.01 0.01 0.01 0.01 0.01 0.00 0.00 0.00 0.01 0.01 0.00 0.01 0.01 0.01 0.01 0.01 0.01 0.01 0.01 0.01 0.01 0.02 0.02 0.02 0.02 0.03 0.03 0.03 0.04 0.04
0.00 0.00 0.00 0.00 0.00 0.00 0.00 0.00 0.00 0.00 0.00 0.00 0.00 0.00 0.01 0.01 0.01 0.01 0.01 0.01 0.00 0.00 0.01 0.00 0.01 0.01 0.01 0.02 0.02 0.02 0.02 0.01 0.01 0.02 0.02 0.02 0.03 0.04 0.04 0.04 0.04 0.05 0.05
0.00 0.00 0.00 0.00 0.00 0.00 0.00 0.00 0.00 0.00 0.00 0.00 0.00 0.00 0.00 0.01 0.00 0.01 0.01 0.01 0.01 0.00 0.00 0.01 0.01 0.01 0.01 0.02 0.03 0.03 0.02 0.02 0.02 0.02 0.03 0.04 0.04 0.05 0.05 0.05 0.06 0.06 0.07
0.00 0.00 0.00 0.00 0.00 0.00 0.00 0.00 0.00 0.00 0.00 0.00 0.00 0.00 0.00 0.00 0.00 0.00 0.00 0.00 0.01 0.00 0.00 0.00 0.01 0.01 0.01 0.01 0.02 0.02 0.02 0.02 0.01 0.02 0.02 0.03 0.05 0.05 0.05 0.06 0.07 0.08 0.08
0.00 0.00 0.00 0.00 0.00 0.00 0.00 0.00 0.00 0.00 0.00 0.00 0.00 0.00 0.00 0.00 0.00 0.00 0.00 0.01 0.01 0.01 0.00 0.00 0.01 0.01 0.01 0.02 0.01 0.02 0.02 0.02 0.01 0.01 0.01 0.02 0.03 0.04 0.05 0.06 0.09 0.10 0.10
0.00 0.00 0.00 0.00 0.00 0.00 0.00 0.00 0.00 0.00 0.00 0.00 0.00 0.00 0.00 0.00 0.00 0.00 0.00 0.01 0.01 0.01 0.01 0.01 0.01 0.01 0.01 0.01 0.02 0.02 0.02 0.02 0.02 0.01 0.01 0.02 0.02 0.03 0.03 0.04 0.07 0.10 0.12
0.00 0.00 0.00 0.00 0.00 0.00 0.00 0.00 0.00 0.00 0.00 0.00 0.00 0.00 0.00 0.00 0.00 0.00 0.00 0.00 0.01 0.02 0.01 0.01 0.01 0.01 0.01 0.01 0.01 0.02 0.02 0.02 0.02 0.02 0.02 0.02 0.02 0.03 0.03 0.03 0.04 0.07 0.11
0.00 0.01 0.01 0.00 0.00 0.00 0.00 0.00 0.00 0.00 0.00 0.00 0.00 0.00 0.00 0.00 0.00 0.00 0.00 0.00 0.01 0.01 0.02 0.01 0.01 0.01 0.01 0.01 0.01 0.02 0.03 0.03 0.03 0.02 0.02 0.03 0.03 0.02 0.03 0.03 0.03 0.05 0.07
0.00 0.01 0.01 0.00 0.00 0.00 0.00 0.00 0.00 0.00 0.00 0.00 0.00 0.00 0.00 0.00 0.00 0.00 0.00 0.00 0.00 0.00 0.01 0.01 0.01 0.01 0.01 0.02 0.02 0.03 0.03 0.04 0.05 0.04 0.03 0.03 0.03 0.03 0.03 0.03 0.03 0.03 0.04
0.00 0.00 0.00 0.00 0.00 0.00 0.00 0.00 0.00 0.00 0.00 0.00 0.00 0.00 0.00 0.00 0.00 0.00 0.00 0.00 0.00 0.00 0.00 0.01 0.01 0.01 0.01 0.01 0.03 0.03 0.03 0.04 0.04 0.04 0.04 0.03 0.03 0.02 0.02 0.02 0.03 0.03 0.03
0.00 0.00 0.00 0.00 0.00 0.00 0.00 0.00 0.00 0.00 0.00 0.00 0.00 0.00 0.00 0.00 0.00 0.01 0.01 0.01 0.00 0.00 0.01 0.01 0.01 0.01 0.01 0.01 0.02 0.03 0.03 0.02 0.02 0.02 0.02 0.02 0.02 0.02 0.02 0.02 0.03 0.03 0.03
0.00 0.00 0.00 0.00 0.00 0.00 0.00 0.00 0.00 0.00 0.00 0.00 0.00 0.00 0.00 0.00 0.00 0.01 0.01 0.01 0.01 0.01 0.01 0.01 0.01 0.01 0.01 0.01 0.02 0.02 0.02 0.03 0.02 0.01 0.01 0.01 0.02 0.02 0.02 0.02 0.02 0.03 0.03
0.00 0.01 0.00 0.00 0.00 0.00 0.00 0.00 0.00 0.00 0.00 0.00 0.00 0.00 0.00 0.00 0.00 0.00 0.00 0.00 0.00 0.00 0.01 0.01 0.01 0.01 0.02 0.02 0.02 0.02 0.02 0.02 0.01 0.01 0.01 0.01 0.01 0.01 0.01 0.02 0.02 0.03 0.04
0.00 0.01 0.00 0.00 0.00 0.00 0.00 0.00 0.00 0.00 0.00 0.00 0.00 0.00 0.00 0.00 0.00 0.00 0.00 0.00 0.00 0.00 0.00 0.00 0.00 0.00 0.01 0.02 0.03 0.02 0.02 0.02 0.02 0.02 0.01 0.01 0.01 0.02 0.02 0.02 0.02 0.02 0.03
0.00 0.01 0.01 0.00 0.00 0.00 0.00 0.00 0.00 0.00 0.00 0.00 0.00 0.00 0.00 0.00 0.00 0.00 0.00 0.00 0.00 0.00 0.00 0.00 0.00 0.00 0.00 0.01 0.02 0.03 0.03 0.02 0.03 0.03 0.03 0.03 0.02 0.02 0.02 0.02 0.02 0.03 0.02
0.00 0.01 0.01 0.01 0.00 0.00 0.00 0.00 0.00 0.00 0.00 0.00 0.00 0.00 0.00 0.00 0.00 0.00 0.00 0.00 0.00 0.00 0.00 0.00 0.00 0.00 0.00 0.01 0.02 0.02 0.03 0.03 0.04 0.03 0.04 0.05 0.05 0.04 0.04 0.05 0.04 0.04 0.04
MSLP
1017.87 1017.90 1017.78 1017.55 1017.32 1017.11 1016.97 1016.87 1016.78 1016.66 1016.48 1016.23 1015.91 1015.55 1015.20 1014.88 1014.61 1014.40 1014.21 1014.03 1013.82 1013.56 1013.27 1012.94 1012.61 1012.31 1012.04 1011.82 1011.63 1011.45 1011.27 1011.08 1010.86 1010.64 1010.44 1010.28 1010.16 1010.10 1010.08 1010.09 1010.11 1010.12 1010.12
1017.96 1017.98 1017.86 1017.67 1017.49 1017.35 1017.26 1017.21 1017.14 1017.03 1016.84 1016.56 1016.21 1015.84 1015.48 1015.17 1014.93 1014.74 1014.58 1014.42 1014.22 1013.97 1013.66 1013.32 1012.98 1012.65 1012.35 1012.09 1011.86 1011.63 1011.40 1011.14 1010.87 1010.59 1010.33 1010.12 1009.95 1009.85 1009.80 1009.79 1009.80 1009.80 1009.80
1018.16 1018.14 1018.02 1017.86 1017.72 1017.63 1017.59 1017.56 1017.51 1017.40 1017.19 1016.90 1016.54 1016.16 1015.80 1015.50 1015.26 1015.08 1014.93 1014.76 1014.56 1014.29 1013.98 1013.63 1013.28 1012.94 1012.63 1012.35 1012.09 1011.83 1011.55 1011.24 1010.90 1010.56 1010.25 1009.97 1009.76 1009.61 1009.53 1009.48 1009.47 1009.46 1009.45
1018.44 1018.39 1018.27 1018.13 1018.02 1017.96 1017.94 1017.93 1017.88 1017.75 1017.54 1017.23 1016.87 1016.50 1016.15 1015.85 1015.61 1015.42 1015.25 1015.06 1014.83 1014.54 1014.20 1013.84 1013.48 1013.14 1012.83 1012.55 1012.28 1012.00 1011.69 1011.33 1010.95 1010.56 1010.19 1009.86 1009.59 1009.40 1009.27 1009.19 1009.14 1009.11 1009.10
1018.76 1018.69 1018.56 1018.44 1018.35 1018.31 1018.29 1018.28 1018.21 1018.08 1017.85 1017.54 1017.18 1016.82 1016.48 1016.19 1015.95 1015.74 1015.53 1015.30 1015.02 1014.69 1014.32 1013.94 1013.58 1013.24 1012.95 1012.68 1012.41 1012.12 1011.79 1011.41 1010.99 1010.55 1010.13 1009.76 1009.45 1009.21 1009.03 1008.91 1008.83 1008.77 1008.74
1019.06 1018.97 1018.85 1018.75 1018.68 1018.65 1018.63 1018.59 1018.50 1018.34 1018.09 1017.78 1017.43 1017.08 1016.76 1016.48 1016.23 1016.00 1015.75 1015.46 1015.13 1014.75 1014.34 1013.94 1013.57 1013.24 1012.96 1012.71 1012.45 1012.16 1011.83 1011.43 1010.99 1010.52 1010.07 1009.66 1009.31 1009.03 1008.82 1008.66 1008.54 1008.44 1008.37
1019.28 1019.20 1019.11 1019.03 1018.98 1018.95 1018.92 1018.86 1018.73 1018.53 1018.26 1017.93 1017.59 1017.25 1016.95 1016.67 1016.42 1016.17 1015.88 1015.54 1015.15 1014.71 1014.27 1013.84 1013.46 1013.14 1012.87 1012.63 1012.39 1012.11 1011.77 1011.37 1010.91 1010.44 1009.97 1009.54 1009.17 1008.87 1008.62 1008.42 1008.25 1008.11 1007.99
1019.40 1019.35 1019.30 1019.26 1019.23 1019.20 1019.15 1019.05 1018.88 1018.63 1018.33 1017.98 1017.63 1017.31 1017.01 1016.75 1016.49 1016.21 1015.89 1015.50 1015.06 1014.59 1014.11 1013.66 1013.27 1012.95 1012.69 1012.46 1012.22 1011.95 1011.61 1011.21 1010.76 1010.28 1009.81 1009.38 1009.00 1008.68 1008.42 1008.18 1007.97 1007.78 1007.60
1019.43 1019.42 1019.41 1019.41 1019.41 1019.39 1019.31 1019.17 1018.95 1018.65 1018.30 1017.93 1017.56 1017.23 1016.94 1016.67 1016.40 1016.11 1015.76 1015.34 1014.87 1014.37 1013.87 1013.41 1013.02 1012.70 1012.44 1012.20 1011.96 1011.69 1011.35 1010.95 1010.50 1010.03 1009.58 1009.16 1008.79 1008.48 1008.20 1007.94 1007.69 1007.44 1007.20
1019.39 1019.42 1019.46 1019.50 1019.51 1019.49 1019.39 1019.21 1018.93 1018.59 1018.19 1017.78 1017.39 1017.04 1016.74 1016.46 1016.17 1015.86 1015.49 1015.06 1014.57 1014.06 1013.56 1013.10 1012.70 1012.38 1012.12 1011.88 1011.62 1011.33 1010.99 1010.59 1010.15 1009.70 1009.27 1008.88 1008.53 1008.23 1007.95 1007.68 1007.41 1007.11 1006.81
1019.32 1019.39 1019.45 1019.52 1019.54 1019.51 1019.39 1019.17 1018.85 1018.45 1018.01 1017.56 1017.14 1016.76 1016.43 1016.12 1015.82 1015.48 1015.09 1014.65 1014.16 1013.65 1013.16 1012.72 1012.33 1012.01 1011.74 1011.48 1011.21 1010.90 1010.54 1010.14 1009.71 1009.28 1008.89 1008.53 1008.22 1007.94 1007.68 1007.41 1007.12 1006.79 1006.44
1019.27 1019.34 1019.42 1019.48 1019.51 1019.45 1019.30 1019.05 1018.69 1018.25 1017.77 1017.29 1016.84 1016.42 1016.05 1015.71 1015.37 1015.00 1014.59 1014.14 1013.65 1013.16 1012.69 1012.26 1011.89 1011.57 1011.29 1011.01 1010.71 1010.38 1010.00 1009.60 1009.18 1008.78 1008.42 1008.11 1007.84 1007.60 1007.37 1007.11 1006.81 1006.47 1006.09
1019.26 1019.31 1019.37 1019.42 1019.41 1019.33 1019.14 1018.86 1018.47 1018.01 1017.51 1017.00 1016.51 1016.06 1015.65 1015.25 1014.86 1014.46 1014.02 1013.55 1013.08 1012.60 1012.15 1011.75 1011.39 1011.07 1010.77 1010.46 1010.13 1009.77 1009.38 1008.97 1008.56 1008.19 1007.87 1007.61 1007.39 1007.19 1006.99 1006.76 1006.47 1006.13 1005.74
1019.29 1019.31 1019.33 1019.32 1019.27 1019.14 1018.93 1018.61 1018.21 1017.74 1017.23 1016.71 1016.20 1015.71 1015.25 1014.80 1014.36 1013.90 1013.43 1012.94 1012.46 1012.00 1011.56 1011.17 1010.82 1010.49 1010.16 1009.83 1009.46 1009.07 1008.66 1008.24 1007.85 1007.51 1007.24 1007.02 1006.85 1006.70 1006.54 1006.33 1006.07 1005.74 1005.35
1019.36 1019.34 1019.30 1019.23 1019.12 1018.94 1018.68 1018.34 1017.93 1017.47 1016.96 1016.44 1015.92 1015.40 1014.89 1014.39 1013.88 1013.37 1012.85 1012.34 1011.85 1011.38 1010.95 1010.56 1010.20 1009.85 1009.49 1009.11 1008.71 1008.29 1007.85 1007.44 1007.06 1006.75 1006.52 1006.34 1006.22 1006.11 1005.98 1005.81 1005.57 1005.26 1004.89
1019.45 1019.38 1019.29 1019.16 1018.97 1018.74 1018.44 1018.08 1017.66 1017.20 1016.71 1016.20 1015.67 1015.14 1014.59 1014.04 1013.47 1012.91 1012.34 1011.79 1011.28 1010.79 1010.35 1009.94 1009.55 1009.17 1008.77 1008.35 1007.90 1007.44 1006.99 1006.57 1006.21 1005.93 1005.72 1005.58 1005.49 1005.41 1005.31 1005.16 1004.95 1004.66 1004.32
1019.55 1019.45 1019.31 1019.12 1018.87 1018.57 1018.23 1017.85 1017.42 1016.97 1016.49 1015.99 1015.46 1014.91 1014.34 1013.74 1013.13 1012.52 1011.91 1011.33 1010.78 1010.28 1009.81 1009.37 1008.94 1008.50 1008.05 1007.57 1007.08 1006.58 1006.11 1005.68 1005.33 1005.06 1004.88 1004.76 1004.68 1004.62 1004.53 1004.39 1004.19 1003.93 1003.62
1019.64 1019.53 1019.36 1019.12 1018.82 1018.47 1018.08 1017.67 1017.23 1016.77 1016.29 1015.79 1015.27 1014.70 1014.11 1013.49 1012.85 1012.20 1011.56 1010.95 1010.38 1009.84 1009.34 1008.86 1008.38 1007.88 1007.37 1006.83 1006.29 1005.76 1005.26 1004.82 1004.47 1004.21 1004.03 1003.91 1003.83 1003.75 1003.65 1003.52 1003.32 1003.08 1002.79
1019.71 1019.62 1019.43 1019.17 1018.82 1018.43 1018.00 1017.54 1017.07 1016.59 1016.10 1015.60 1015.06 1014.49 1013.88 1013.25 1012.59 1011.93 1011.27 1010.65 1010.05 1009.49 1008.95 1008.42 1007.89 1007.34 1006.77 1006.18 1005.58 1005.01 1004.49 1004.04 1003.67 1003.40 1003.20 1003.07 1002.96 1002.86 1002.74 1002.58 1002.39 1002.16 1001.90
1019.76 1019.69 1019.52 1019.24 1018.87 1018.44 1017.96 1017.45 1016.94 1016.43 1015.91 1015.38 1014.82 1014.24 1013.63 1012.98 1012.32 1011.66 1011.01 1010.38 1009.77 1009.19 1008.62 1008.06 1007.48 1006.88 1006.25 1005.61 1004.98 1004.37 1003.83 1003.35 1002.97 1002.67 1002.44 1002.27 1002.12 1001.97 1001.82 1001.64 1001.44 1001.22 1000.99
1019.78 1019.75 1019.60 1019.31 1018.93 1018.46 1017.94 1017.38 1016.82 1016.25 1015.69 1015.12 1014.54 1013.93 1013.31 1012.67 1012.02 1011.36 1010.72 1010.09 1009.49 1008.90 1008.31 1007.71 1007.10 1006.45 1005.79 1005.12 1004.46 1003.83 1003.26 1002.77 1002.36 1002.03 1001.76 1001.54 1001.33 1001.14 1000.94 1000.74 1000.53 1000.33 1000.13
1019.78 1019.78 1019.64 1019.36 1018.96 1018.46 1017.90 1017.30 1016.68 1016.05 1015.43 1014.82 1014.20 1013.57 1012.94 1012.29 1011.64 1011.00 1010.37 1009.75 1009.15 1008.55 1007.94 1007.32 1006.68 1006.01 1005.33 1004.64 1003.98 1003.34 1002.77 1002.26 1001.83 1001.47 1001.15 1000.88 1000.62 1000.38 1000.15 999.93 999.72 999.53 999.37
1019.76 1019.76 1019.63 1019.35 1018.94 1018.42 1017.83 1017.18 1016.51 1015.83 1015.16 1014.49 1013.83 1013.17 1012.51 1011.85 1011.20 1010.56 1009.93 1009.30 1008.69 1008.07 1007.45 1006.81 1006.16 1005.48 1004.80 1004.12 1003.47 1002.85 1002.29 1001.79 1001.34 1000.95 1000.61 1000.29 1000.00 999.72 999.46 999.22 999.02 998.85 998.72
1019.72 1019.70 1019.56 1019.27 1018.85 1018.32 1017.70 1017.02 1016.31 1015.59 1014.87 1014.16 1013.45 1012.75 1012.06 1011.38 1010.70 1010.04 1009.38 1008.73 1008.08 1007.44 1006.79 1006.13 1005.47 1004.80 1004.13 1003.48 1002.87 1002.29 1001.76 1001.28 1000.84 1000.45 1000.09 999.75 999.43 999.14 998.87 998.64 998.44 998.29 998.17
1019.66 1019.60 1019.43 1019.12 1018.68 1018.14 1017.52 1016.84 1016.11 1015.36 1014.61 1013.86 1013.11 1012.37 1011.63 1010.90 1010.17 1009.45 1008.74 1008.04 1007.34 1006.64 1005.95 1005.27 1004.59 1003.93 1003.30 1002.70 1002.14 1001.62 1001.14 1000.71 1000.31 999.94 999.58 999.25 998.93 998.64 998.37 998.15 997.96 997.81 997.68
1019.60 1019.48 1019.25 1018.91 1018.47 1017.93 1017.31 1016.64 1015.92 1015.16 1014.39 1013.61 1012.82 1012.03 1011.24 1010.44 1009.64 1008.84 1008.05 1007.26 1006.48 1005.71 1004.96 1004.24 1003.56 1002.92 1002.32 1001.78 1001.29 1000.84 1000.44 1000.07 999.73 999.40 999.08 998.77 998.47 998.20 997.95 997.73 997.55 997.38 997.22
Thickness
5731 5731 5729 5730 5731 5733 5734 5736 5737 5738 5740 5741 5741 5742 5742 5742 5743 5743 5743 5743 5743 5743 5744 5744 5744 5744 5743 5743 5743 5742 5742 5741 5741 5741 5740 5740 5740 5739 5738 5737 5737 5738 5736
5728 5728 5725 5726 5727 5728 5729 5731 5732 5733 5734 5736 5737 5737 5738 5738 5738 5739 5739 5739 5739 5739 5739 5740 5740 5740 5740 5740 5739 5739 5739 5738 5738 5737 5737 5737 5737 5736 5736 5735 5735 5736 5733
5724 5723 5722 5722 5723 5724 5725 5726 5727 5728 5729 5730 5731 5732 5732 5733 5733 5734 5734 5734 5735 5735 5735 5735 5736 5735 5735 5735 5735 5735 5735 5735 5734 5734 5734 5736 5736 5734 5733 5732 5732 5731 5730
5719 5719 5718 5717 5718 5719 5720 5721 5722 5722 5723 5724 5725 5726 5727 5727 5728 5729 5729 5729 5730 5730 5730 5731 5731 5731 5731 5731 5731 5731 5731 5731 5731 5731 5733 5734 5734 5731 5730 5729 5728 5728 5727
5714 5714 5712 5712 5713 5714 5714 5715 5716 5717 5718 5719 5719 5720 5721 5722 5722 5723 5723 5724 5724 5725 5725 5725 5726 5726 5726 5726 5727 5727 5727 5727 5727 5727 5730 5730 5730 5728 5726 5726 5725 5724 5724
5709 5709 5706 5706 5707 5708 5709 5709 5710 5711 5712 5713 5713 5714 5715 5715 5716 5717 5717 5718 5718 5719 5719 5720 5720 5720 5721 5721 5722 5722 5722 5722 5723 5725 5726 5726 5726 5723 5723 5722 5721 5720 5720
5703 5702 5701 5700 5701 5702 5702 5703 5704 5705 5706 5706 5707 5708 5708 5709 5709 5710 5711 5711 5712 5713 5713 5713 5714 5714 5715 5716 5716 5717 5717 5717 5719 5721 5721 5721 5721 5719 5718 5718 5718 5717 5716
5696 5695 5694 5693 5694 5695 5696 5696 5697 5698 5699 5700 5700 5701 5701 5702 5703 5703 5704 5705 5705 5706 5706 5707 5707 5708 5709 5710 5710 5711 5711 5711 5714 5716 5717 5716 5715 5714 5714 5714 5713 5713 5712
5689 5689 5688 5688 5688 5688 5689 5689 5690 5691 5692 5692 5693 5693 5694 5695 5695 5696 5697 5698 5698 5699 5700 5700 5701 5702 5703 5704 5704 5704 5705 5706 5708 5710 5711 5711 5710 5710 5710 5709 5709 5709 5709
5682 5682 5682 5682 5682 5683 5683 5682 5683 5684 5684 5685 5686 5686 5687 5688 5688 5689 5690 5690 5691 5692 5693 5694 5694 5695 5696 5697 5698 5698 5699 5700 5703 5704 5705 5705 5704 5704 5705 5705 5705 5705 5704
5675 5675 5675 5676 5676 5676 5677 5676 5676 5677 5677 5678 5679 5679 5680 5682 5682 5682 5682 5682 5683 5684 5685 5687 5688 5689 5690 5691 5691 5692 5692 5695 5697 5698 5698 5698 5698 5698 5699 5699 5700 5700 5700
5670 5670 5670 5669 5669 5670 5670 5670 5671 5671 5671 5672 5673 5674 5674 5675 5675 5675 5675 5675 5676 5677 5678 5679 5680 5682 5683 5685 5686 5685 5687 5688 5690 5691 5691 5690 5690 5691 5692 5693 5694 5694 5695
5665 5663 5663 5663 5663 5663 5663 5664 5664 5664 5665 5666 5666 5666 5667 5668 5668 5668 5669 5669 5670 5671 5672 5673 5674 5676 5676 5677 5678 5679 5679 5681 5682 5683 5684 5683 5683 5684 5685 5687 5688 5689 5689
5659 5657 5657 5656 5656 5656 5657 5657 5658 5658 5658 5659 5659 5659 5660 5661 5661 5661 5661 5662 5662 5663 5664 5665 5666 5667 5668 5669 5670 5671 5671 5672 5673 5675 5676 5675 5675 5676 5678 5679 5680 5681 5683
5653 5651 5650 5649 5650 5649 5650 5650 5651 5651 5652 5652 5651 5652 5653 5654 5654 5654 5654 5654 5654 5655 5656 5656 5658 5659 5660 5661 5662 5662 5663 5664 5665 5666 5667 5668 5668 5668 5670 5671 5673 5674 5675
5648 5646 5645 5644 5643 5643 5644 5644 5645 5645 5644 5645 5645 5645 5645 5645 5646 5646 5646 5646 5646 5646 5646 5647 5648 5649 5651 5652 5653 5654 5654 5655 5656 5657 5658 5660 5660 5660 5661 5663 5664 5666 5668
5643 5641 5639 5638 5637 5637 5638 5638 5638 5638 5638 5638 5638 5637 5637 5637 5637 5637 5638 5637 5637 5637 5637 5638 5639 5639 5640 5642 5643 5644 5645 5646 5646 5648 5649 5650 5651 5652 5653 5654 5656 5658 5659
5637 5635 5633 5632 5631 5631 5631 5631 5631 5631 5631 5631 5630 5630 5630 5629 5628 5629 5629 5629 5628 5627 5628 5628 5629 5629 5630 5631 5633 5634 5635 5636 5636 5638 5639 5639 5641 5642 5644 5645 5646 5648 5650
5632 5630 5628 5627 5626 5625 5625 5624 5625 5624 5624 5623 5623 5622 5621 5621 5620 5620 5619 5619 5618 5618 5617 5617 5617 5617 5618 5618 5620 5622 5624 5625 5626 5627 5628 5629 5629 5630 5632 5634 5635 5637 5640
5627 5625 5623 5622 5620 5619 5618 5618 5618 5617 5617 5616 5615 5614 5613 5612 5611 5610 5610 5609 5608 5607 5607 5606 5605 5604 5604 5605 5607 5610 5612 5613 5614 5616 5616 5617 5618 5618 5620 5622 5624 5627 5629
5621 5620 5619 5617 5615 5613 5612 5612 5612 5611 5610 5609 5607 5606 5605 5603 5602 5601 5600 5599 5597 5596 5595 5594 5593 5592 5592 5591 5593 5598 5602 5602 5603 5603 5603 5603 5604 5605 5606 5609 5611 5614 5618
5617 5616 5614 5612 5610 5608 5606 5605 5604 5603 5602 5601 5599 5598 5596 5594 5592 5591 5590 5589 5587 5585 5584 5582 5580 5579 5579 5576 5576 5580 5588 5592 5593 5591 5589 5588 5589 5590 5592 5594 5596 5599 5603
5614 5611 5609 5607 5604 5602 5600 5598 5596 5595 5594 5594 5592 5590 5588 5585 5583 5582 5580 5578 5576 5575 5573 5571 5568 5566 5566 5563 5560 5558 5562 5571 5575 5579 5577 5575 5574 5575 5577 5578 5580 5584 5588
5608 5605 5602 5600 5598 5596 5593 5592 5592 5591 5590 5588 5585 5583 5580 5577 5575 5572 5570 5568 5566 5564 5562 5560 5557 5554 5551 5551 5548 5545 5544 5544 5546 5557 5564 5562 5560 5561 5563 5564 5566 5569 5573
5601 5598 5596 5594 5591 5589 5587 5585 5585 5584 5582 5579 5576 5574 5572 5569 5566 5563 5560 5558 5556 5553 5551 5548 5545 5542 5539 5537 5535 5533 5531 5529 5529 5532 5543 5548 5549 5549 5550 5551 5553 5556 5559
5594 5591 5589 5587 5585 5582 5580 5578 5577 5576 5573 5571 5568 5566 5564 5561 5557 5554 5551 5548 5546 5543 5541 5538 5535 5532 5529 5526 5523 5521 5519 5517 5517 5518 5524 5531 5535 5538 5538 5539 5540 5543 5546